Theta_e
342 343 342 343 344 345 345 346 347 348 348 349 349 349 350 350 350 351 351 350 350 350 351 351 352 351 351 351 350 347 343 339 338 337 337 338 339 341 342 342 343 343 344 345 343 341 340 340 339 336 336 338 334 330 331 333 334 330 325 325 328 328 330
342 343 343 343 344 344 345 345 346 347 347 348 349 349 350 351 350 351 351 351 351 351 351 351 351 351 351 351 351 349 345 341 339 338 337 339 339 341 342 342 343 342 343 344 343 342 341 341 338 336 337 338 334 330 330 332 333 329 326 326 327 325 326
341 343 344 344 344 344 345 345 345 347 346 347 348 348 349 350 350 351 351 351 351 351 351 351 351 351 351 351 351 351 348 343 340 339 338 338 339 340 342 342 342 342 342 344 343 342 342 341 338 336 337 337 334 331 330 331 332 330 326 326 325 322 323
341 343 343 344 345 344 345 345 345 346 346 346 347 347 348 349 349 351 350 351 351 351 351 351 351 351 351 351 351 351 350 346 342 340 339 339 339 340 341 342 342 342 342 343 343 343 342 341 338 336 337 338 337 333 330 330 331 329 325 324 323 320 320
343 342 343 343 345 345 345 345 344 345 346 346 346 347 347 348 349 351 350 351 351 350 351 351 351 352 351 351 351 351 350 348 344 342 341 341 340 341 342 342 342 342 342 342 344 344 343 342 339 335 336 339 339 335 331 330 329 326 323 321 321 319 318
343 343 343 343 344 345 345 345 345 346 346 346 347 347 348 349 349 350 350 350 351 351 351 351 351 352 352 352 352 352 351 350 347 344 343 344 342 341 341 342 342 342 341 341 343 344 343 342 339 334 335 338 339 335 331 330 329 323 320 319 319 319 319
343 344 344 343 344 344 345 346 346 346 346 346 347 347 348 349 349 350 350 351 351 352 352 352 352 352 353 353 353 353 352 352 350 348 346 346 345 343 342 342 343 341 341 341 342 344 343 341 338 334 333 336 339 336 330 331 330 322 319 319 318 318 319
343 344 344 344 344 345 345 345 346 346 347 347 348 348 349 349 350 350 351 351 351 352 353 353 353 353 353 354 354 354 353 352 352 351 349 348 347 345 343 342 342 342 341 341 341 343 343 340 337 335 334 336 338 336 331 331 331 325 320 319 318 319 319
343 344 344 344 344 344 346 345 346 346 347 348 348 349 349 350 351 350 351 351 351 352 353 353 354 354 354 354 354 354 354 353 353 352 352 350 348 346 344 342 342 342 341 341 341 342 342 340 337 336 337 337 338 337 332 331 333 331 325 320 318 318 319
343 343 343 344 344 345 346 345 346 346 347 348 349 349 350 350 351 351 351 352 352 353 354 354 355 355 355 355 355 356 355 354 353 353 353 352 349 346 344 343 343 343 342 341 341 341 341 339 337 337 338 339 339 338 336 334 335 334 331 327 322 319 319
343 343 343 344 344 345 345 345 346 347 347 348 348 349 350 350 351 352 352 353 353 354 355 355 356 356 356 356 356 357 356 355 353 353 352 351 349 346 344 344 344 342 341 341 341 341 341 340 338 337 338 338 338 338 337 337 337 337 336 335 330 324 319
342 343 343 344 345 345 345 345 346 347 348 348 348 350 350 350 352 352 353 354 354 355 356 356 357 357 357 357 357 358 357 356 354 352 351 350 349 346 345 344 344 342 341 341 340 340 341 340 338 337 337 338 338 338 338 338 339 339 339 339 337 332 325
343 344 343 344 345 345 345 345 346 347 348 349 349 350 350 351 352 352 353 355 355 356 357 357 358 359 358 358 358 358 358 357 355 351 349 347 347 346 345 345 344 343 342 341 341 341 340 339 338 336 337 338 339 339 339 339 340 340 340 339 339 337 332
342 342 343 344 343 344 345 345 345 346 347 348 349 349 350 351 351 352 353 354 355 356 357 357 358 359 359 359 359 359 358 357 355 352 348 346 346 347 347 345 344 344 343 343 343 341 339 338 337 337 338 338 339 340 340 341 340 339 339 339 339 338 338
339 340 342 343 343 344 345 344 346 346 347 347 348 348 350 351 351 352 353 354 355 356 357 357 358 359 360 360 359 359 358 357 356 354 351 348 347 347 347 345 344 344 345 346 344 342 341 339 339 339 339 338 339 341 342 342 341 340 339 339 339 339 339
337 339 341 341 342 343 343 344 345 345 346 346 346 347 349 350 351 352 353 354 355 356 357 358 357 359 359 359 359 359 359 358 357 356 354 352 349 346 345 345 344 345 346 347 346 344 343 342 341 340 339 337 339 341 342 342 341 340 340 341 341 341 341
339 340 339 340 342 342 343 343 344 345 346 345 344 346 347 349 351 352 353 354 354 355 356 357 358 358 359 358 358 358 359 359 358 357 356 354 350 347 345 344 344 346 347 348 348 347 346 345 343 340 338 338 340 341 341 340 339 339 341 342 343 344 344
341 340 339 340 340 342 342 343 344 346 346 345 343 345 346 348 350 351 353 354 354 355 356 357 358 358 358 358 358 358 359 359 358 358 357 355 353 349 347 346 346 347 349 349 349 348 348 347 344 341 339 340 341 342 341 339 338 339 342 344 345 345 345
342 339 340 340 340 342 343 342 344 346 345 344 344 344 345 347 349 351 352 352 354 355 356 357 358 358 358 358 358 358 358 358 358 358 357 356 354 352 350 349 349 350 351 351 349 348 348 346 344 343 343 343 343 342 342 340 340 342 344 345 346 346 347
342 341 341 341 342 342 342 343 344 345 345 344 343 342 342 344 346 348 350 352 355 356 357 358 358 357 358 358 358 357 357 358 358 358 358 357 355 354 353 351 351 351 352 352 351 349 347 346 345 345 344 344 343 344 343 342 343 344 346 347 348 348 348
344 344 341 341 342 342 343 343 343 344 345 343 341 340 340 343 346 348 350 354 356 357 357 357 357 358 358 358 358 357 357 357 358 358 358 357 357 356 355 353 353 353 353 353 353 350 347 345 345 345 344 344 345 345 345 344 345 347 348 349 350 350 350
346 346 343 340 340 340 342 344 343 344 343 341 341 341 342 343 345 348 352 355 356 356 357 357 357 357 358 358 358 358 357 357 358 358 359 358 358 356 355 354 354 353 354 354 353 351 350 348 346 346 345 345 347 347 346 347 350 351 351 351 352 351 350
341 343 344 344 344 343 342 343 343 343 343 342 342 342 342 344 345 348 353 355 356 357 357 357 358 357 357 358 358 357 357 358 358 359 359 358 358 356 355 354 353 353 354 355 354 353 352 350 349 348 348 349 349 348 349 352 353 353 353 353 353 352 351
332 332 333 334 339 342 342 342 343 342 342 343 343 343 343 344 345 349 352 354 355 356 357 357 358 357 357 357 358 358 358 358 358 358 358 358 357 356 355 355 353 353 353 354 354 353 351 350 351 351 352 352 352 352 353 354 355 355 355 354 353 352 351
334 333 331 330 332 335 337 340 341 341 343 346 344 342 343 344 345 348 349 350 351 353 355 356 355 356 356 356 357 359 359 359 359 358 358 357 356 355 355 355 354 353 353 353 353 352 352 352 354 354 354 354 355 356 356 356 356 355 355 355 353 352 350
339 335 335 334 334 334 334 335 336 336 341 345 345 343 343 344 346 347 347 347 348 350 352 352 352 353 354 355 357 359 359 360 359 359 358 357 356 355 355 355 355 354 354 353 354 354 354 355 355 356 356 356 357 357 357 357 356 356 355 353 351 350 349
347 344 341 338 336 336 335 336 335 334 336 340 342 342 342 344 348 349 350 350 352 351 347 346 348 351 354 356 357 358 360 360 359 359 358 357 357 356 355 356 356 355 355 355 355 356 356 357 357 358 358 358 357 357 357 356 356 354 353 352 350 350 348
349 349 347 342 338 335 335 336 336 335 336 339 343 345 345 348 350 349 348 351 353 351 347 346 348 351 354 357 358 358 359 359 359 359 359 358 358 358 356 356 357 356 356 357 357 357 357 358 359 358 359 358 358 357 356 356 354 353 351 351 349 347 346
344 348 350 348 344 339 336 335 334 335 335 337 341 343 342 346 350 351 350 351 350 346 344 345 346 351 356 357 358 358 358 357 358 358 359 359 358 358 358 358 358 358 359 358 358 358 359 359 359 359 359 358 357 357 356 354 353 352 350 348 344 342 342
347 350 352 351 350 347 344 340 334 333 335 335 338 342 342 344 348 352 356 357 354 352 351 348 348 353 357 357 356 357 357 356 356 357 358 359 358 358 359 359 359 360 360 359 359 359 359 360 360 359 359 358 357 356 355 353 351 349 347 344 341 340 341
347 347 350 352 353 352 351 349 345 343 344 342 343 348 353 354 353 355 359 360 360 360 359 358 357 357 356 356 356 355 355 355 355 356 358 359 359 359 360 360 360 361 361 361 361 361 361 361 360 359 359 358 357 355 352 350 348 347 345 342 341 340 340
347 347 349 353 356 355 353 352 352 352 353 355 356 358 361 361 359 358 359 359 359 360 360 360 360 359 358 357 355 354 354 355 357 359 360 360 360 360 360 360 361 361 361 363 363 362 362 361 360 360 358 357 355 352 350 348 346 345 344 342 341 340 339
349 348 348 350 354 356 355 354 353 352 352 354 357 360 362 362 362 362 360 359 359 359 358 359 360 360 361 359 357 356 356 357 358 361 362 362 362 362 362 362 362 362 363 364 363 363 363 361 359 358 356 354 352 350 348 347 345 344 343 342 341 340 339
351 352 353 354 355 356 356 356 355 355 354 353 354 356 357 359 360 362 361 361 361 360 360 360 360 360 362 362 362 361 360 361 362 363 364 364 364 364 364 364 364 364 364 364 363 362 360 358 357 355 352 351 350 348 346 345 344 343 341 341 340 340 339
350 351 354 356 356 357 357 356 356 356 355 354 354 355 355 355 356 356 357 357 357 359 360 360 360 362 364 365 365 365 365 365 364 364 364 365 365 365 365 365 365 364 362 361 359 357 354 354 353 352 350 349 347 344 342 342 342 341 340 340 340 339 339
348 347 348 349 351 354 354 354 355 355 354 354 356 356 357 358 358 358 357 357 355 356 359 362 365 366 366 366 366 364 364 364 365 365 365 366 366 366 365 363 361 359 356 354 353 352 351 350 350 349 348 346 343 341 340 340 340 340 340 340 340 339 338
349 348 347 346 346 346 346 346 349 351 353 355 355 354 355 356 355 355 359 362 361 362 364 363 363 364 366 365 361 357 356 358 360 363 364 364 364 364 362 358 355 352 350 348 348 349 349 348 346 346 344 342 340 340 340 340 340 340 340 340 340 339 338
349 350 349 348 348 347 346 346 347 347 348 349 348 346 347 350 350 350 356 359 360 362 363 357 352 353 355 354 352 353 353 351 351 353 357 357 357 357 356 353 350 348 347 346 346 347 346 344 343 342 341 341 341 341 341 340 340 340 340 339 338 338 337
Wind_Speed
44 47 50 50 52 52 53 55 56 56 56 57 57 57 58 57 57 57 56 55 53 52 50 49 48 46 45 44 44 43 42 40 39 38 36 36 35 34 33 31 30 30 30 30 28 25 24 23 20 19 18 17 17 17 16 15 15 16 16 16 16 16 16
43 46 49 50 51 52 54 56 56 57 57 57 58 58 58 58 58 58 57 56 54 52 51 49 48 47 46 44 44 44 43 41 40 39 38 37 36 36 34 33 32 31 30 30 29 26 25 24 22 20 19 18 18 18 18 17 17 18 18 17 18 17 17
42 44 47 50 52 53 55 55 56 57 57 58 58 58 58 59 59 59 57 56 55 53 51 50 48 47 45 44 44 44 44 43 41 41 40 39 38 36 35 35 33 32 31 30 29 27 26 25 23 22 21 20 19 19 18 18 18 19 19 18 19 19 18
41 43 47 51 53 55 55 56 56 57 57 58 58 59 59 59 59 59 57 56 55 54 52 50 49 47 46 44 44 44 44 44 43 42 41 40 39 37 36 36 35 34 32 31 29 28 27 26 25 25 24 22 21 20 19 18 19 21 20 20 20 20 20
41 43 45 48 51 53 55 56 57 57 57 58 58 58 59 59 58 58 57 56 55 54 52 50 48 47 46 44 43 43 44 44 44 43 42 41 40 39 37 37 36 35 34 32 31 30 28 28 28 27 26 25 24 22 20 19 20 21 22 22 21 21 21
41 43 43 46 50 52 55 57 57 58 58 58 58 58 57 57 58 58 57 56 55 54 52 51 49 47 46 45 43 42 43 43 43 43 43 42 41 41 40 38 37 36 35 34 33 32 30 29 29 29 29 28 26 24 22 20 21 22 23 23 23 22 22
43 44 45 48 50 52 55 57 57 57 58 57 56 56 56 56 57 57 57 56 55 54 53 52 51 48 46 45 44 43 42 42 43 43 44 43 43 42 41 40 38 37 36 35 35 33 32 31 30 30 30 29 28 26 24 22 23 24 24 25 25 24 23
46 46 48 49 50 53 55 56 56 56 56 55 54 54 55 56 56 57 57 57 56 55 54 53 52 50 48 45 44 43 41 40 41 43 44 44 44 43 43 42 40 38 38 37 36 35 34 33 32 31 31 31 30 28 26 24 24 25 25 25 26 26 25
46 48 52 52 51 53 54 54 55 54 54 53 53 54 54 55 56 57 57 57 56 55 55 54 52 51 49 47 46 44 40 39 40 42 43 44 45 44 44 43 42 40 40 39 38 37 36 35 34 33 32 32 32 30 28 27 26 27 27 26 26 27 27
45 48 52 52 51 52 53 54 52 51 52 53 53 54 54 56 56 57 57 57 56 56 55 53 52 51 50 48 47 45 42 40 39 41 43 45 46 46 45 44 44 42 41 40 39 39 38 37 35 35 34 34 34 33 31 30 29 29 30 28 27 26 27
44 47 49 50 51 52 51 49 48 50 53 55 55 55 55 56 56 56 56 56 56 56 54 53 52 51 51 50 48 47 45 42 40 41 43 45 46 46 46 45 45 44 43 42 41 40 39 38 38 37 37 37 36 35 33 32 31 31 31 30 29 27 27
42 46 49 50 52 52 49 46 47 51 54 55 56 55 55 55 55 55 56 55 55 54 53 52 52 52 52 51 50 49 47 45 42 41 42 44 46 47 47 47 46 46 44 43 42 42 41 40 40 40 40 39 38 37 36 34 33 32 32 31 30 29 28
40 44 49 52 52 50 47 46 48 51 53 54 54 54 55 55 55 55 55 54 54 53 52 52 52 52 52 52 51 51 49 47 44 42 42 43 45 46 47 48 48 47 46 45 44 43 43 42 42 41 41 41 39 38 37 36 35 34 33 33 32 30 30
35 40 45 47 48 47 46 46 48 51 52 53 53 54 54 54 54 55 55 54 53 52 52 52 52 52 52 52 52 52 51 49 46 43 42 42 44 46 48 49 49 49 48 46 45 45 44 43 42 42 42 42 41 40 39 38 38 37 36 36 34 33 32
26 30 33 35 39 44 46 47 49 52 53 52 52 53 53 53 53 54 54 54 53 53 53 53 53 53 53 53 53 53 52 49 47 46 44 43 44 46 48 49 50 50 49 48 48 46 45 44 44 43 43 43 43 42 41 41 41 40 39 38 36 35 33
26 26 29 32 36 41 45 48 51 51 51 51 51 51 51 52 53 54 54 54 54 55 55 54 54 54 54 54 54 53 51 50 49 48 47 46 46 46 48 49 50 50 50 50 49 48 46 46 45 44 44 44 44 44 44 44 43 42 41 40 38 36 34
30 32 33 37 41 44 47 49 50 50 50 51 51 50 50 52 52 53 54 55 55 56 55 55 55 56 56 55 53 52 51 50 50 49 49 48 47 47 48 49 50 51 51 50 50 48 48 47 46 46 45 45 45 45 45 45 44 43 42 41 39 37 35
28 33 35 36 41 47 48 47 47 48 49 50 50 49 50 51 52 53 54 54 55 56 55 55 56 56 56 55 53 52 52 51 51 51 51 50 49 48 49 49 50 51 51 51 50 48 48 47 47 46 45 45 46 46 46 45 44 43 43 41 40 37 35
25 30 33 36 40 46 47 45 45 48 49 49 49 49 49 50 51 53 55 56 56 56 55 55 56 57 56 55 53 52 51 51 51 51 51 51 50 49 49 50 51 52 52 51 50 48 48 47 47 46 45 45 45 45 44 43 42 43 43 41 39 37 34
25 27 30 35 39 44 47 47 47 48 48 48 48 46 46 48 51 53 54 55 55 54 54 55 56 56 56 55 54 52 51 51 51 52 52 51 50 50 50 52 52 52 52 51 50 49 49 48 47 46 45 44 44 43 42 41 41 41 41 40 37 35 32
26 27 27 28 32 38 43 46 48 49 48 48 47 45 47 49 51 53 54 54 53 53 54 55 55 56 56 56 54 53 52 51 51 51 51 50 50 50 51 52 52 52 51 51 50 50 49 47 46 45 44 43 42 42 40 39 39 41 40 38 35 31 30
30 30 28 25 27 33 38 43 45 46 47 48 47 48 50 51 51 53 54 53 53 53 54 55 55 56 56 56 56 55 53 52 51 51 50 49 49 50 50 51 52 52 51 51 50 49 48 47 45 44 43 42 42 40 38 38 40 40 39 35 32 29 28
20 21 19 19 25 32 35 39 41 43 46 49 51 51 51 50 51 53 54 52 52 53 53 54 55 55 55 56 57 56 55 52 51 50 50 49 49 49 50 50 51 51 50 50 50 49 48 47 45 44 43 42 41 39 38 39 39 39 37 33 30 28 27
7 9 10 11 18 26 31 36 43 46 49 50 51 51 51 50 52 53 54 53 52 53 53 54 55 56 56 57 58 58 57 54 52 51 50 49 49 49 49 49 49 49 49 49 49 49 47 46 45 44 43 42 41 39 39 39 38 37 34 31 28 27 26
3 4 7 8 12 19 25 30 36 42 47 49 48 46 47 48 49 51 52 53 53 53 54 55 57 57 57 58 58 59 58 56 53 52 51 50 49 48 48 48 47 47 47 47 47 47 46 45 44 44 43 41 41 40 39 38 37 35 32 28 26 25 23
6 2 3 5 8 12 17 21 25 29 37 42 43 43 45 48 47 48 50 53 54 55 55 55 56 57 58 59 59 59 59 58 55 53 52 51 49 48 47 46 46 46 45 44 45 45 44 44 44 43 42 41 40 39 38 36 34 32 29 26 23 22 21
8 6 3 3 5 6 9 12 17 22 27 31 36 41 45 48 48 48 49 51 53 54 53 52 52 55 57 59 60 59 59 58 57 55 54 52 50 48 47 47 46 46 45 44 44 43 43 43 43 42 41 40 38 36 34 32 30 27 25 22 21 20 21
10 8 5 2 1 3 4 5 8 14 21 28 35 41 44 46 47 48 48 50 52 53 52 50 50 54 57 59 60 59 58 57 57 56 55 53 51 50 49 48 47 46 45 44 43 42 42 42 41 40 39 37 35 32 30 29 26 24 21 20 20 20 20
3 4 4 2 1 3 4 4 4 7 12 21 30 36 40 42 45 46 48 50 52 53 52 50 50 53 57 58 58 58 58 58 57 56 55 55 53 52 51 50 48 47 46 44 42 41 41 41 40 39 37 34 32 29 28 26 23 21 19 19 18 19 20
2 2 3 3 2 3 4 5 6 6 8 14 22 29 35 40 42 43 46 49 51 50 49 48 51 55 57 56 56 56 55 55 56 56 56 55 55 53 52 50 50 48 46 44 42 41 40 40 39 37 35 32 30 28 27 24 22 20 19 18 15 16 18
1 1 1 1 1 2 3 4 5 7 10 16 21 25 29 33 36 39 42 44 44 43 42 38 38 45 52 54 54 54 54 54 54 55 55 55 56 55 53 51 50 49 45 42 41 40 40 40 39 37 34 32 30 29 27 24 22 21 19 16 13 14 16
3 3 3 3 3 4 4 3 5 8 11 14 18 21 24 27 30 33 37 41 42 42 43 38 32 34 43 50 53 54 54 53 53 53 53 54 55 54 54 53 50 47 45 43 42 40 39 39 38 36 34 31 30 28 25 22 21 20 17 15 14 16 18
4 5 5 5 4 5 7 7 7 9 10 10 11 14 18 23 27 30 34 38 39 38 40 40 36 33 37 44 48 51 52 53 53 53 53 53 53 53 52 51 49 47 46 44 42 39 38 37 36 34 32 30 28 25 21 20 20 19 17 16 18 19 19
8 6 5 5 5 4 6 6 5 6 8 8 7 8 9 13 20 26 31 35 37 35 34 35 35 34 35 39 43 46 50 52 54 54 54 53 53 52 50 48 47 45 42 40 38 38 37 36 34 33 31 28 25 21 20 21 22 19 16 17 18 20 20
12 11 10 8 6 4 2 2 2 3 4 4 6 8 9 9 13 20 25 30 34 34 31 30 32 32 34 38 41 44 47 49 51 54 56 54 52 50 48 46 42 38 35 35 34 33 32 32 31 30 27 24 21 19 21 23 20 16 15 16 17 17 18
12 12 13 11 10 9 7 5 5 3 4 5 2 5 9 10 11 14 18 23 28 28 26 29 34 37 39 41 41 42 45 49 52 55 56 55 53 51 47 42 37 33 32 32 29 25 24 24 24 23 22 21 19 18 17 16 14 14 15 15 14 14 14
14 14 14 13 12 11 10 8 6 4 3 2 1 6 9 9 10 13 16 18 23 25 26 30 35 39 42 45 46 45 45 47 50 51 52 52 52 50 46 41 35 31 28 26 25 24 23 21 20 20 20 19 19 19 17 15 15 15 15 14 13 14 14
18 17 17 16 16 16 14 12 9 7 5 2 2 6 6 7 9 11 11 12 17 23 25 26 28 32 36 40 47 48 45 43 44 46 47 45 42 40 40 39 36 32 28 25 25 24 22 21 20 20 18 17 17 18 17 16 16 16 15 14 13 14 15
Wind_Direction
194 196 197 198 200 201 203 205 206 207 208 209 210 210 209 210 210 212 213 215 217 217 218 218 220 222 224 226 227 226 226 224 223 222 221 222 223 222 222 222 223 225 226 227 229 231 230 227 224 221 220 222 223 224 223 222 221 220 222 225 224 222 220
194 197 198 198 199 201 204 206 207 208 208 210 210 210 209 210 210 211 212 214 216 217 218 219 220 222 224 227 227 226 226 225 224 223 221 222 223 223 223 224 225 226 228 229 231 232 231 229 228 225 221 220 220 223 225 223 223 223 224 227 228 227 223
194 196 197 198 199 201 204 206 208 209 209 210 209 209 210 211 211 212 213 213 214 216 218 219 221 222 224 226 227 227 227 226 225 224 223 222 223 223 224 225 227 229 230 229 230 231 230 230 230 227 223 221 220 223 225 225 226 225 225 229 232 232 227
197 196 196 198 200 202 204 205 208 210 210 211 211 211 212 212 212 213 213 214 214 214 216 219 221 223 224 225 226 227 227 226 225 225 224 224 224 224 224 225 227 229 230 230 230 230 230 230 231 228 224 221 222 224 227 227 226 225 225 228 232 234 232
200 199 197 198 200 202 203 205 208 210 211 211 212 212 213 213 212 212 213 214 215 216 219 220 221 223 224 225 226 227 228 228 227 226 226 225 225 224 224 226 227 228 230 230 230 230 230 230 230 228 225 222 223 226 229 229 226 222 223 226 230 233 232
202 201 199 199 200 202 204 206 209 210 211 212 212 213 212 211 210 211 212 214 215 217 218 219 220 221 223 223 224 226 227 228 228 227 227 226 226 225 225 226 227 229 230 229 229 230 231 231 230 228 225 224 225 227 230 231 225 220 221 224 228 230 230
201 200 200 201 200 202 204 207 209 211 212 212 212 212 210 210 210 211 212 213 215 216 216 217 218 220 221 222 223 224 226 228 229 228 228 227 227 227 226 226 228 229 231 230 230 230 231 231 230 228 227 227 228 230 233 232 224 220 221 223 226 228 229
201 200 201 202 201 202 205 208 209 210 211 210 209 209 209 209 210 210 211 213 215 215 216 216 217 218 220 220 221 223 225 228 229 228 228 228 228 227 226 227 228 229 230 230 230 231 232 232 230 228 228 229 230 232 234 233 226 222 222 224 225 227 229
203 202 204 205 204 204 206 208 208 209 209 209 208 208 209 209 210 211 212 213 214 215 216 217 217 217 218 219 220 222 223 226 228 228 228 228 228 227 227 227 227 229 230 230 231 231 232 232 231 230 230 230 231 233 234 233 228 225 225 227 227 228 230
203 203 206 206 205 206 208 209 209 208 207 207 207 208 209 209 210 211 212 212 212 215 216 216 215 216 217 218 220 221 222 224 226 227 227 228 228 227 226 226 227 229 230 231 231 231 232 233 232 232 232 233 234 234 234 233 231 229 228 230 231 231 233
202 203 204 205 205 206 207 208 207 206 206 206 206 208 209 210 211 211 211 212 213 214 215 214 214 214 216 217 218 219 221 223 224 226 227 228 228 227 226 226 227 228 230 231 231 231 232 232 231 231 233 235 237 237 236 236 235 234 233 233 235 235 236
201 202 201 203 204 205 206 204 203 204 205 204 205 207 208 209 210 211 211 212 213 213 213 213 213 213 215 216 216 218 221 222 223 225 227 228 227 227 226 226 226 228 230 231 232 232 232 233 233 232 233 235 238 239 240 240 239 239 239 239 239 239 239
202 202 201 202 203 204 203 201 201 203 204 204 205 207 209 210 211 211 211 211 212 212 212 213 213 213 214 215 216 218 221 223 224 225 226 228 228 227 226 226 226 228 230 231 231 232 233 234 234 234 235 237 239 241 242 242 242 243 244 244 244 244 243
205 204 204 203 202 202 201 200 202 204 204 205 206 208 209 211 212 212 212 211 211 211 212 213 214 213 214 215 216 218 221 224 225 225 226 227 228 227 226 227 227 228 230 231 231 232 234 235 236 236 237 238 240 242 243 243 244 245 245 245 246 246 246
207 208 210 207 203 202 202 202 205 206 205 205 207 208 208 209 211 212 212 211 211 211 212 213 214 214 214 215 217 220 222 223 224 225 226 226 227 227 226 227 228 228 230 231 232 233 234 235 236 237 239 240 241 242 243 244 245 246 247 247 247 248 248
194 203 212 214 211 207 205 207 208 207 205 205 207 208 208 209 211 211 212 211 211 212 213 212 213 214 214 216 220 221 221 222 224 224 225 225 226 227 227 227 228 228 229 231 232 233 233 234 235 237 239 241 242 242 243 245 247 248 249 249 250 250 251
190 193 200 209 214 214 211 211 210 207 203 204 209 211 211 213 213 213 213 212 212 213 212 211 213 214 215 218 221 221 220 222 223 224 224 225 226 227 227 227 228 228 229 230 231 232 232 233 234 237 239 241 242 243 245 247 249 251 251 251 251 252 252
194 193 195 202 211 213 212 210 208 205 202 206 212 214 214 216 215 213 213 213 213 213 211 211 213 214 216 219 221 221 221 222 223 223 224 225 225 227 227 227 227 227 228 229 230 231 232 233 235 237 239 240 242 244 246 249 252 253 252 252 252 252 253
198 199 200 203 207 208 209 209 207 204 204 208 213 215 217 218 217 216 217 216 215 212 210 211 213 214 217 218 219 222 223 223 223 223 224 225 226 226 226 226 227 226 226 228 230 231 232 234 236 238 239 241 242 245 248 251 253 253 253 252 252 253 254
200 202 203 205 207 207 207 208 208 206 206 210 214 216 219 221 221 222 221 218 214 210 210 211 213 214 217 217 218 222 223 223 223 223 224 225 226 225 226 226 226 226 226 227 228 230 232 235 237 238 240 242 244 247 249 252 254 254 253 252 252 253 254
195 196 198 202 208 210 208 206 206 206 208 212 216 217 219 220 221 222 221 216 213 211 211 212 213 215 216 217 218 221 222 223 224 225 225 225 225 225 226 226 225 225 225 226 227 230 233 235 236 238 240 242 244 247 250 253 254 254 253 252 252 253 254
193 193 197 202 210 213 210 207 207 207 210 215 217 218 219 219 220 220 218 216 214 214 213 213 214 216 216 217 218 220 222 223 224 224 224 224 224 225 225 226 226 226 225 225 227 230 232 234 236 238 240 241 243 245 249 252 253 253 252 252 253 253 251
191 195 201 204 210 212 211 211 211 212 217 220 219 219 219 220 221 219 217 215 215 215 215 215 215 216 217 218 219 220 221 223 223 224 223 223 223 224 225 225 226 226 225 225 227 229 231 234 236 238 239 241 242 245 249 251 252 253 253 253 253 251 248
188 207 210 203 208 213 215 216 215 216 219 220 218 219 221 221 220 218 216 216 216 216 215 215 217 218 219 220 221 221 221 222 223 223 223 223 223 224 225 224 225 226 227 227 229 231 233 235 236 238 240 242 244 247 249 250 253 254 255 255 254 250 248
89 174 191 186 196 207 215 219 220 221 223 223 221 222 226 226 222 219 219 218 218 216 215 217 219 220 221 224 224 222 221 221 222 223 222 223 224 224 224 225 225 226 227 229 231 233 234 235 235 237 240 242 245 246 247 250 253 255 256 257 254 250 247
56 94 170 166 171 188 203 214 221 225 228 228 225 225 230 230 225 222 223 222 219 217 218 221 223 224 225 226 226 223 221 220 221 223 223 224 224 224 225 225 224 225 226 228 230 232 233 234 235 237 239 241 242 244 246 248 251 253 255 254 251 248 246
109 117 131 146 159 171 184 201 216 224 229 229 224 223 227 228 223 221 224 222 218 218 222 226 227 227 227 226 224 223 221 220 221 222 224 224 223 222 223 224 223 224 225 226 227 229 230 232 233 235 237 239 240 242 244 246 248 250 248 246 247 248 246
113 112 112 116 213 230 211 206 215 221 226 229 227 225 227 228 227 227 228 225 223 225 227 228 228 228 227 225 224 222 222 221 221 221 221 220 220 220 220 221 222 223 223 223 223 226 227 229 230 231 233 235 236 238 241 242 243 242 241 244 248 247 242
83 81 98 103 349 280 259 245 228 221 226 230 231 231 230 230 231 231 230 229 230 232 232 231 232 231 227 224 223 222 222 221 220 218 216 216 217 218 218 218 218 219 219 219 220 222 224 226 226 227 228 228 229 232 235 237 236 234 237 243 243 237 231
75 76 77 69 27 331 307 280 262 255 239 231 232 235 236 236 235 231 228 228 231 233 233 233 232 229 225 224 224 223 221 219 217 216 213 213 214 215 214 215 215 215 215 217 218 219 220 222 222 223 223 223 225 227 229 229 228 230 234 236 229 218 215
3 303 336 340 268 265 301 296 271 250 232 226 230 235 238 238 235 231 227 228 229 231 232 235 234 228 224 223 223 222 220 217 214 212 211 209 209 210 211 212 211 210 210 212 214 215 216 218 218 219 219 220 223 224 223 223 225 227 230 231 218 202 199
293 279 266 254 226 199 183 183 197 201 208 215 220 224 230 233 232 231 230 230 232 234 234 235 236 234 230 225 222 221 218 213 209 207 205 205 205 208 210 211 209 208 207 208 210 212 213 214 214 215 218 220 220 220 220 222 223 223 227 231 221 203 194
332 303 287 290 272 215 200 201 194 190 196 200 199 207 218 223 225 228 231 234 235 238 238 235 231 232 232 227 221 217 213 208 204 201 198 198 200 202 206 208 208 205 204 203 204 206 209 212 213 213 214 214 214 215 217 220 221 223 227 232 226 212 200
33 8 344 334 315 260 228 220 201 194 204 205 200 205 215 221 225 227 232 237 239 241 242 236 229 225 225 221 216 210 206 202 199 195 193 193 195 197 200 202 202 201 201 203 205 207 208 209 210 209 208 207 208 210 215 220 222 222 220 221 220 214 206
55 47 41 31 15 354 287 215 163 164 183 195 213 225 231 242 243 239 238 240 241 241 238 230 223 218 215 212 207 201 197 193 190 190 189 188 190 193 194 196 198 201 203 205 207 210 209 206 204 204 205 208 211 215 219 219 215 207 200 202 208 211 209
68 61 54 49 47 44 39 42 53 72 96 93 93 250 247 246 253 262 261 254 249 243 228 212 207 202 196 192 190 188 187 185 184 185 186 186 187 188 187 187 192 198 200 198 196 199 203 203 202 205 208 212 214 212 209 202 191 186 190 194 200 205 206
72 67 59 55 56 54 49 42 27 1 8 58 298 266 262 256 259 270 274 266 256 242 215 192 188 188 184 181 179 175 174 173 174 178 181 180 181 181 178 175 176 180 184 185 181 181 185 190 196 204 208 206 197 186 179 174 174 182 190 194 196 196 192
71 68 64 63 64 62 60 59 56 52 56 60 253 246 243 250 258 256 244 236 237 228 207 183 174 175 175 174 173 172 172 172 171 173 173 170 170 173 172 167 164 163 165 169 171 174 180 187 194 197 193 184 177 174 174 177 181 184 186 188 190 187 180